Location: Wien
(48.2082°N, 16.3738°E)
Time: 11:03:38
(UTC+02:00)

Transit 4A - Pass Details

Date: 26 February 2024
Orbit: 871 x 971 km, 66.8° (Epoch: 24 April)

Event Time Altitude Azimuth Distance (km) Brightness Sun altitude
Exits shadow 05:10:00 - 318° (NW) 2,813 10.1 -16.2°
Reaches altitude 10° 05:11:15 10° 328° (NNW) 2,590 10.0 -16.0°
Maximum altitude 05:13:51 13° 354° (N) 2,378 10.0 -15.6°
Drops below altitude 10° 05:16:25 10° 20° (NNE) 2,564 10.5 -15.1°
Sets 05:20:34 0° 48° (NE) 3,487 11.8 -14.4°
